Powrót do katalogu

THOR ABLESTAR DEB

AktywnyLEO
NORAD 136·DEBRIS·🇺🇸 United States

Wystrzelony Jun 29, 1961 z Cape Canaveral Space Force Station

Loading…

Następne Przeloty (najbliższe 24 godziny)

TLE

ŚwieżeSource: Space-Track

Epoka: Sep 14, 2026, 10:53 UTC

1 00136U 61015W   26257.45388912  .00000848  00000-0  27753-3 0  9992
2 00136  67.5283  50.6983 0047415 308.3338  51.3515 14.42323673369635

Śledź THOR ABLESTAR DEB w czasie rzeczywistym z AllMySat

Download on the App Store